| time (UTC) | temp F | wind direction | speed knots | gust knots | rain 1hr in | rain 24hr in | rain mn in | humidity % | barometer mb |
| 20260508105110 | 58 | 240 | 9.6 | 10.4 | 0.00 | 0.00 | 0.00 | 6 | 1021.3 |
| 20260508104110 | 58 | 261 | 2.6 | 8.7 | 0.00 | 0.00 | 0.00 | 6 | 1021.1 |
| 20260508103110 | 58 | 240 | 7.8 | 10.4 | 0.00 | 0.00 | 0.00 | 6 | 1021.1 |
| 20260508102110 | 58 | 256 | 3.5 | 6.1 | 0.00 | 0.00 | 0.00 | 6 | 1021.1 |
| 20260508101110 | 59 | 247 | 3.5 | 9.6 | 0.00 | 0.00 | 0.00 | 6 | 1020.9 |
| 20260508100110 | 59 | 205 | 0.9 | 7.0 | 0.00 | 0.00 | 0.00 | 6 | 1020.8 |
| 20260508095110 | 59 | 236 | 1.7 | 8.7 | 0.00 | 0.00 | 0.00 | 6 | 1020.8 |
| 20260508094110 | 59 | 249 | 7.0 | 9.6 | 0.00 | 0.00 | 0.00 | 6 | 1020.6 |
| 20260508093110 | 59 | 249 | 5.2 | 11.3 | 0.00 | 0.00 | 0.00 | 6 | 1020.4 |
| 20260508092110 | 59 | 233 | 4.3 | 9.6 | 0.00 | 0.00 | 0.00 | 6 | 1020.2 |
| 20260508091110 | 60 | 232 | 9.6 | 12.2 | 0.00 | 0.00 | 0.00 | 6 | 1020.2 |
| 20260508090110 | 60 | 256 | 6.1 | 13.9 | 0.00 | 0.00 | 0.00 | 6 | 1020.1 |
| 20260508085110 | 60 | 230 | 7.8 | 11.3 | 0.00 | 0.00 | 0.00 | 6 | 1019.9 |
| 20260508084110 | 60 | 256 | 4.3 | 9.6 | 0.00 | 0.00 | 0.00 | 6 | 1019.7 |
| 20260508083110 | 60 | 236 | 1.7 | 7.0 | 0.00 | 0.00 | 0.00 | 6 | 1019.6 |
| 20260508082110 | 60 | 241 | 1.7 | 2.6 | 0.00 | 0.00 | 0.00 | 5 | 1019.4 |
| 20260508081110 | 61 | 258 | 1.7 | 9.6 | 0.00 | 0.00 | 0.00 | 5 | 1019.3 |
| 20260508080109 | 61 | 247 | 2.6 | 9.6 | 0.00 | 0.00 | 0.00 | 5 | 1019.2 |
| 20260508075109 | 62 | 262 | 4.3 | 11.3 | 0.00 | 0.00 | 0.00 | 5 | 1019.2 |
| 20260508074109 | 62 | 231 | 2.6 | 9.6 | 0.00 | 0.00 | 0.00 | 5 | 1018.9 |
| 20260508073109 | 62 | 243 | 0.9 | 4.3 | 0.00 | 0.00 | 0.00 | 5 | 1018.7 |
| 20260508072109 | 62 | 234 | 2.6 | 3.5 | 0.00 | 0.00 | 0.00 | 5 | 1018.5 |
| 20260508071108 | 63 | 256 | 4.3 | 9.6 | 0.00 | 0.00 | 0.00 | 5 | 1018.2 |
| 20260508070108 | 63 | 185 | 7.0 | 9.6 | 0.00 | 0.00 | 0.00 | 5 | 1017.9 |
| 20260508065107 | 64 | 256 | 7.0 | 7.0 | 0.00 | 0.00 | 0.00 | 5 | 1017.8 |
| 20260508064107 | 64 | 206 | 4.3 | 10.4 | 0.00 | 0.00 | 0.00 | 4 | 1017.6 |
| 20260508063107 | 64 | 262 | 7.8 | 7.8 | 0.00 | 0.00 | 0.00 | 5 | 1017.4 |
| 20260508062107 | 65 | 191 | 2.6 | 6.1 | 0.00 | 0.00 | 0.00 | 4 | 1017.3 |
| 20260508061107 | 65 | 239 | 4.3 | 11.3 | 0.00 | 0.00 | 0.00 | 4 | 1017.0 |
| 20260508060107 | 65 | 224 | 7.8 | 13.0 | 0.00 | 0.00 | 0.00 | 4 | 1016.7 |
| 20260508055107 | 65 | 254 | 0.9 | 3.5 | 0.00 | 0.00 | 0.00 | 4 | 1016.6 |
| 20260508054107 | 66 | 210 | 7.8 | 10.4 | 0.00 | 0.00 | 0.00 | 4 | 1016.3 |
| 20260508053107 | 66 | 238 | 4.3 | 7.0 | 0.00 | 0.00 | 0.00 | 4 | 1016.3 |
| 20260508052107 | 66 | 260 | 7.8 | 9.6 | 0.00 | 0.00 | 0.00 | 4 | 1016.4 |
| 20260508051107 | 67 | 185 | 3.5 | 12.2 | 0.00 | 0.00 | 0.00 | 4 | 1016.2 |
| 20260508050107 | 66 | 302 | 7.0 | 8.7 | 0.00 | 0.00 | 0.00 | 4 | 1016.0 |
| 20260508045107 | 66 | 245 | 7.0 | 15.6 | 0.00 | 0.00 | 0.00 | 4 | 1016.1 |
| 20260508044107 | 67 | 263 | 8.7 | 15.6 | 0.00 | 0.00 | 0.00 | 4 | 1016.1 |
| 20260508043107 | 67 | 226 | 1.7 | 10.4 | 0.00 | 0.00 | 0.00 | 4 | 1015.9 |
| 20260508042107 | 67 | 253 | 3.5 | 11.3 | 0.00 | 0.00 | 0.00 | 4 | 1015.9 |
| 20260508041107 | 67 | 245 | 7.0 | 13.9 | 0.00 | 0.00 | 0.00 | 4 | 1015.9 |
| 20260508040106 | 67 | 262 | 7.8 | 14.8 | 0.00 | 0.00 | 0.00 | 4 | 1015.8 |
| 20260508035106 | 67 | 222 | 14.8 | 14.8 | 0.00 | 0.00 | 0.00 | 4 | 1015.8 |
| 20260508034106 | 67 | 235 | 2.6 | 9.6 | 0.00 | 0.00 | 0.00 | 4 | 1015.8 |
| 20260508033106 | 67 | 222 | 3.5 | 11.3 | 0.00 | 0.00 | 0.00 | 4 | 1015.7 |
| 20260508032106 | 67 | 238 | 4.3 | 16.5 | 0.00 | 0.00 | 0.00 | 4 | 1015.8 |
| 20260508031106 | 67 | 191 | 6.1 | 13.9 | 0.00 | 0.00 | 0.00 | 4 | 1015.9 |
| 20260508030106 | 67 | 223 | 7.8 | 7.8 | 0.00 | 0.00 | 0.00 | 4 | 1016.2 |
| 20260508025106 | 66 | 251 | 5.2 | 11.3 | 0.00 | 0.00 | 0.00 | 4 | 1016.2 |
| 20260508024106 | 66 | 287 | 7.0 | 8.7 | 0.00 | 0.00 | 0.00 | 4 | 1016.3 |
| 20260508023106 | 66 | 239 | 4.3 | 10.4 | 0.00 | 0.00 | 0.00 | 4 | 1016.6 |
| 20260508022106 | 65 | 249 | 7.0 | 9.6 | 0.00 | 0.00 | 0.00 | 4 | 1016.7 |
| 20260508021106 | 65 | 242 | 10.4 | 14.8 | 0.00 | 0.00 | 0.00 | 4 | 1016.9 |
| 20260508020106 | 65 | 260 | 10.4 | 16.5 | 0.00 | 0.00 | 0.00 | 4 | 1017.0 |
| 20260508015106 | 64 | 247 | 4.3 | 13.0 | 0.00 | 0.00 | 0.00 | 5 | 1017.1 |
| 20260508014106 | 63 | 230 | 7.8 | 12.2 | 0.00 | 0.00 | 0.00 | 5 | 1017.2 |
| 20260508013106 | 63 | 231 | 9.6 | 14.8 | 0.00 | 0.00 | 0.00 | 5 | 1017.2 |
| 20260508012106 | 63 | 233 | 4.3 | 12.2 | 0.00 | 0.00 | 0.00 | 5 | 1017.5 |
| 20260508011106 | 62 | 215 | 4.3 | 14.8 | 0.00 | 0.00 | 0.00 | 5 | 1017.5 |
| 20260508010106 | 62 | 252 | 2.6 | 7.8 | 0.00 | 0.00 | 0.00 | 5 | 1017.9 |
| 20260508005106 | 61 | 254 | 9.6 | 14.8 | 0.00 | 0.00 | 0.00 | 5 | 1018.1 |
| 20260508004106 | 61 | 245 | 7.0 | 13.9 | 0.00 | 0.00 | 0.00 | 5 | 1017.9 |
| 20260508003106 | 60 | 224 | 6.1 | 9.6 | 0.00 | 0.00 | 0.00 | 5 | 1018.0 |
| 20260508002106 | 60 | 226 | 5.2 | 11.3 | 0.00 | 0.00 | 0.00 | 5 | 1017.9 |
| 20260508001106 | 60 | 245 | 5.2 | 10.4 | 0.00 | 0.00 | 0.00 | 5 | 1018.3 |
| 20260508000106 | 59 | 251 | 14.8 | 16.5 | 0.00 | 0.00 | 0.00 | 5 | 1018.1 |
| 20260507235106 | 59 | 234 | 5.2 | 13.0 | 0.00 | 0.00 | 0.00 | 5 | 1018.1 |
| 20260507234106 | 58 | 255 | 6.1 | 12.2 | 0.00 | 0.00 | 0.00 | 5 | 1018.1 |
| 20260507233106 | 58 | 235 | 7.8 | 7.8 | 0.00 | 0.00 | 0.00 | 5 | 1018.0 |
| 20260507232106 | 57 | 253 | 7.8 | 12.2 | 0.00 | 0.00 | 0.00 | 5 | 1018.0 |
| 20260507231106 | 57 | 267 | 0.9 | 6.1 | 0.00 | 0.00 | 0.00 | 5 | 1018.0 |
| 20260507230106 | 56 | 270 | 3.5 | 10.4 | 0.00 | 0.00 | 0.00 | 5 | 1018.0 |
| 20260507225106 | 55 | 267 | 3.5 | 7.0 | 0.00 | 0.00 | 0.00 | 6 | 1017.9 |
| 20260507224106 | 55 | 271 | 2.6 | 7.8 | 0.00 | 0.00 | 0.00 | 5 | 1017.9 |
| 20260507223106 | 54 | 235 | 8.7 | 9.6 | 0.00 | 0.00 | 0.00 | 6 | 1017.9 |
| 20260507222106 | 54 | 224 | 4.3 | 9.6 | 0.00 | 0.00 | 0.00 | 6 | 1017.8 |
| 20260507221106 | 53 | 270 | 1.7 | 10.4 | 0.00 | 0.00 | 0.00 | 6 | 1017.8 |
| 20260507220106 | 52 | 218 | 5.2 | 9.6 | 0.00 | 0.00 | 0.00 | 6 | 1017.7 |
| 20260507215106 | 52 | 0 | 0.0 | 4.3 | 0.00 | 0.00 | 0.00 | 6 | 1017.7 |
| 20260507214106 | 51 | 215 | 3.5 | 8.7 | 0.00 | 0.00 | 0.00 | 6 | 1017.8 |
| 20260507213106 | 51 | 249 | 7.0 | 7.0 | 0.00 | 0.00 | 0.00 | 6 | 1017.7 |
| 20260507212106 | 50 | 235 | 3.5 | 7.0 | 0.00 | 0.00 | 0.00 | 6 | 1017.8 |
| 20260507211106 | 50 | 218 | 2.6 | 7.8 | 0.00 | 0.00 | 0.00 | 6 | 1017.7 |
| 20260507210106 | 49 | 264 | 6.1 | 7.8 | 0.00 | 0.00 | 0.00 | 6 | 1017.8 |
| 20260507205106 | 48 | 271 | 3.5 | 7.8 | 0.00 | 0.00 | 0.00 | 6 | 1017.7 |
| 20260507204106 | 48 | 241 | 3.5 | 6.1 | 0.00 | 0.00 | 0.00 | 6 | 1017.5 |
| 20260507203106 | 48 | 215 | 0.9 | 3.5 | 0.00 | 0.00 | 0.00 | 6 | 1017.5 |
| 20260507202106 | 48 | 248 | 3.5 | 6.1 | 0.00 | 0.00 | 0.00 | 6 | 1017.4 |
| 20260507201106 | 47 | 233 | 8.7 | 9.6 | 0.00 | 0.00 | 0.00 | 6 | 1017.5 |
| 20260507200106 | 47 | 233 | 4.3 | 8.7 | 0.00 | 0.00 | 0.00 | 6 | 1017.5 |
| 20260507195106 | 48 | 268 | 2.6 | 8.7 | 0.00 | 0.00 | 0.00 | 6 | 1017.7 |
| 20260507194106 | 48 | 258 | 2.6 | 7.0 | 0.00 | 0.00 | 0.00 | 6 | 1017.5 |
| 20260507193106 | 48 | 233 | 3.5 | 7.8 | 0.00 | 0.00 | 0.00 | 6 | 1017.5 |
| 20260507192106 | 48 | 268 | 3.5 | 9.6 | 0.00 | 0.00 | 0.00 | 6 | 1017.3 |
| 20260507191106 | 48 | 239 | 3.5 | 7.0 | 0.00 | 0.00 | 0.00 | 6 | 1017.4 |
| 20260507190106 | 48 | 249 | 5.2 | 9.6 | 0.00 | 0.00 | 0.00 | 6 | 1017.5 |
| 20260507185106 | 48 | 264 | 2.6 | 6.1 | 0.00 | 0.00 | 0.00 | 6 | 1017.6 |
| 20260507184106 | 48 | 243 | 8.7 | 11.3 | 0.00 | 0.00 | 0.00 | 6 | 1017.5 |
| 20260507183106 | 48 | 241 | 2.6 | 5.2 | 0.00 | 0.00 | 0.00 | 6 | 1017.4 |
| 20260507182106 | 48 | 258 | 3.5 | 12.2 | 0.00 | 0.00 | 0.00 | 6 | 1017.3 |
| 20260507181106 | 47 | 264 | 3.5 | 7.0 | 0.00 | 0.00 | 0.00 | 6 | 1017.4 |
| 20260507180106 | 47 | 276 | 2.6 | 7.8 | 0.00 | 0.00 | 0.00 | 6 | 1017.4 |
| 20260507175106 | 47 | 265 | 6.1 | 6.1 | 0.00 | 0.00 | 0.00 | 6 | 1017.5 |
| 20260507174106 | 47 | 252 | 7.0 | 7.0 | 0.00 | 0.00 | 0.00 | 6 | 1017.4 |
| 20260507173106 | 47 | 261 | 4.3 | 7.0 | 0.00 | 0.00 | 0.00 | 6 | 1017.7 |
| 20260507172106 | 47 | 266 | 2.6 | 8.7 | 0.00 | 0.00 | 0.00 | 6 | 1017.7 |
| 20260507171106 | 47 | 253 | 2.6 | 8.7 | 0.00 | 0.00 | 0.00 | 6 | 1017.9 |
| 20260507170106 | 47 | 245 | 3.5 | 9.6 | 0.00 | 0.00 | 0.00 | 6 | 1018.0 |
| 20260507165106 | 47 | 295 | 1.7 | 7.0 | 0.00 | 0.00 | 0.00 | 6 | 1018.1 |
| 20260507164106 | 47 | 262 | 2.6 | 5.2 | 0.00 | 0.00 | 0.00 | 6 | 1018.3 |
| 20260507163106 | 47 | 270 | 2.6 | 7.0 | 0.00 | 0.00 | 0.00 | 6 | 1018.2 |
| 20260507162106 | 47 | 267 | 6.1 | 7.8 | 0.00 | 0.00 | 0.00 | 6 | 1018.3 |
| 20260507161106 | 48 | 265 | 6.1 | 6.1 | 0.00 | 0.00 | 0.00 | 6 | 1018.4 |
| 20260507160105 | 48 | 258 | 1.7 | 7.8 | 0.00 | 0.00 | 0.00 | 6 | 1018.6 |
| 20260507155105 | 48 | 239 | 0.9 | 5.2 | 0.00 | 0.00 | 0.00 | 6 | 1018.6 |
| 20260507154105 | 48 | 263 | 4.3 | 6.1 | 0.00 | 0.00 | 0.00 | 6 | 1018.8 |
| 20260507153104 | 48 | 226 | 6.1 | 9.6 | 0.00 | 0.00 | 0.00 | 5 | 1018.8 |
| 20260507152104 | 48 | 255 | 2.6 | 11.3 | 0.00 | 0.00 | 0.00 | 5 | 1018.9 |
| 20260507151104 | 48 | 241 | 5.2 | 7.0 | 0.00 | 0.00 | 0.00 | 6 | 1019.0 |
| 20260507150104 | 47 | 254 | 1.7 | 5.2 | 0.00 | 0.00 | 0.00 | 6 | 1019.2 |
| 20260507145104 | 47 | 310 | 2.6 | 5.2 | 0.00 | 0.00 | 0.00 | 6 | 1019.1 |
| 20260507144103 | 48 | 276 | 1.7 | 6.1 | 0.00 | 0.00 | 0.00 | 5 | 1019.2 |
| 20260507143103 | 48 | 285 | 5.2 | 5.2 | 0.00 | 0.00 | 0.00 | 5 | 1019.2 |
| 20260507142103 | 49 | 260 | 2.6 | 9.6 | 0.00 | 0.00 | 0.00 | 5 | 1019.2 |
| 20260507141103 | 49 | 237 | 1.7 | 9.6 | 0.00 | 0.00 | 0.00 | 5 | 1019.2 |
| 20260507135102 | 49 | 277 | 2.6 | 11.3 | 0.00 | 0.00 | 0.00 | 5 | 1019.3 |
| 20260507134102 | 49 | 246 | 0.9 | 3.5 | 0.00 | 0.00 | 0.00 | 5 | 1019.4 |
| 20260507133102 | 49 | 235 | 3.5 | 9.6 | 0.00 | 0.00 | 0.00 | 5 | 1019.4 |
| 20260507132102 | 49 | 233 | 2.6 | 7.8 | 0.00 | 0.00 | 0.00 | 5 | 1019.3 |
| 20260507131102 | 49 | 247 | 1.7 | 4.3 | 0.00 | 0.00 | 0.00 | 5 | 1019.3 |
| 20260507125102 | 49 | 259 | 1.7 | 4.3 | 0.00 | 0.00 | 0.00 | 5 | 1019.2 |
| 20260507124102 | 50 | 277 | 3.5 | 3.5 | 0.00 | 0.00 | 0.00 | 5 | 1019.2 |
| 20260507123102 | 50 | 248 | 1.7 | 3.5 | 0.00 | 0.00 | 0.00 | 5 | 1019.2 |
| 20260507122102 | 50 | 260 | 7.0 | 8.7 | 0.00 | 0.00 | 0.00 | 5 | 1019.1 |
| 20260507121102 | 51 | 265 | 7.0 | 14.8 | 0.00 | 0.00 | 0.00 | 5 | 1019.0 |
| 20260507115102 | 51 | 223 | 2.6 | 10.4 | 0.00 | 0.00 | 0.00 | 5 | 1019.1 |
| 20260507114102 | 51 | 293 | 5.2 | 6.1 | 0.00 | 0.00 | 0.00 | 5 | 1019.1 |
| 20260507113102 | 51 | 239 | 6.1 | 12.2 | 0.00 | 0.00 | 0.00 | 5 | 1019.2 |
| 20260507112102 | 51 | 260 | 3.5 | 12.2 | 0.00 | 0.00 | 0.00 | 5 | 1019.2 |
| 20260507111102 | 51 | 215 | 4.3 | 7.8 | 0.00 | 0.00 | 0.00 | 5 | 1019.2 |